PATHFINDER 1

Last updated on Sun Jun 21 2026 00:02:52 GMT+0000 (Coordinated Universal Time)

1 41787U 16059E 26170.93178020 .00000403 00000+0 78648-4 0 9997 2 41787 97.8166 170.0842 0028007 194.6747 165.3648 14.67665593520117
UTC large
Height (km)
Speed (km/s)
/
Latitude / Longitude
Inclination (degrees)
Orbital Period (minutes)
Azimuth
Elevation
Range (km)
Doppler Factor

Next 0 passes for location: London (51.5072 / 0.1276)

No passes found over London.
PATHFINDER 1